KK4URH Weather Reports


time (UTC)temp
C
wind
direction
speed
KPH
gust
KPH
rain 1hr
cm
rain 24hr
cm
rain mn
cm
humidity
%
barometer
mb
20260503054523 7 136 0.0 1.6 0.00 0.00 0.00 74 1014.6
20260503053013 7 138 0.0 0.0 0.00 0.00 0.00 74 1014.4
20260503051506 7 138 0.0 0.0 0.00 0.00 0.00 74 1014.4
20260503050005 7 138 0.0 0.0 0.00 0.00 0.00 74 1014.4
20260503044505 8 138 0.0 0.0 0.00 0.00 0.00 74 1014.6
20260503043001 8 138 0.0 0.0 0.00 0.00 0.00 74 1014.5
20260503041601 7 138 0.0 0.0 0.00 0.00 0.00 71 1014.5
20260503040059 7 138 0.0 0.0 0.00 0.00 0.00 70 1014.4
20260503034558 8 138 0.0 0.0 0.00 0.00 0.00 69 1014.3
20260503033055 8 138 0.0 0.0 0.00 0.00 0.00 68 1014.2
20260503031557 8 138 0.0 0.0 0.00 0.00 0.00 68 1014.0
20260503030049 8 138 0.0 0.0 0.00 0.00 0.00 67 1013.7
20260503024547 8 138 0.0 0.0 0.00 0.00 0.00 67 1013.7
20260503023043 9 138 0.0 0.0 0.00 0.00 0.00 68 1013.5
20260503021547 9 138 0.0 1.6 0.00 0.00 0.00 68 1013.2
20260503020050 9 138 0.0 0.0 0.00 0.00 0.00 65 1013.5
20260503014539 9 138 0.0 0.0 0.00 0.00 0.00 65 1013.5
20260503013039 10 138 0.0 0.0 0.00 0.00 0.00 65 1013.4
20260503011536 10 138 0.0 0.0 0.00 0.00 0.00 65 1013.1
20260503010035 10 138 0.0 0.0 0.00 0.00 0.00 64 1012.9
20260503004531 11 138 0.0 0.0 0.00 0.00 0.00 64 1012.7
20260503003031 11 138 0.0 0.0 0.00 0.00 0.00 64 1012.5
20260503001529 11 138 0.0 0.0 0.00 0.00 0.00 64 1012.4
20260503000039 11 110 0.0 0.0 0.00 0.00 0.00 64 1012.0
20260502234528 12 110 0.0 0.0 0.00 0.00 0.00 64 1011.8
20260502233028 12 110 0.0 1.6 0.00 0.00 0.00 62 1011.7
20260502231525 12 110 0.0 1.6 0.00 0.00 0.00 62 1011.7
20260502230024 12 110 0.0 1.6 0.00 0.00 0.00 62 1011.6
20260502224523 12 110 0.0 1.6 0.00 0.00 0.00 62 1011.6
20260502223023 12 110 0.0 1.6 0.00 0.00 0.00 61 1011.4
20260502221558 12 110 0.0 1.6 0.00 0.00 0.00 61 1011.6
20260502220055 12 110 0.0 3.2 0.00 0.00 0.00 62 1011.4
20260502214550 12 107 0.0 3.2 0.00 0.00 0.00 60 1011.2
20260502213049 12 128 0.0 3.2 0.00 0.00 0.00 61 1011.3
20260502211549 12 140 1.6 4.8 0.00 0.00 0.00 61 1011.2
20260502210047 12 107 1.6 4.8 0.00 0.00 0.00 61 1011.3
20260502204549 12 116 1.6 4.8 0.00 0.00 0.00 61 1011.4
20260502203047 12 107 0.0 4.8 0.00 0.00 0.00 62 1011.5
20260502201544 12 98 1.6 6.4 0.00 0.00 0.00 62 1011.4
20260502200041 12 54 3.2 9.7 0.00 0.00 0.00 61 1011.2
20260502194540 12 73 3.2 6.4 0.00 0.00 0.00 60 1011.6
20260502193039 11 53 4.8 9.7 0.00 0.00 0.00 61 1011.7
20260502191535 11 65 3.2 9.7 0.00 0.00 0.00 62 1011.9
20260502190033 11 69 3.2 9.7 0.00 0.00 0.00 62 1011.8
20260502184527 11 67 1.6 6.4 0.00 0.00 0.00 65 1012.0
20260502183027 11 22 1.6 4.8 0.00 0.00 0.00 67 1012.0
20260502181526 11 25 1.6 6.4 0.00 0.00 0.00 67 1012.2
20260502163050 11 79 3.2 8.0 0.00 0.00 0.00 67 1012.9
20260502161606 10 36 1.6 9.7 0.00 0.00 0.00 67 1013.4
20260502160104 10 40 3.2 12.9 0.00 0.00 0.00 66 1013.2
20260502151535 11 49 4.8 11.3 0.00 0.00 0.00 68 1013.1
20260502123040 11 5 0.0 0.0 0.00 0.00 0.00 66 1011.9
20260502121552 11 20 0.0 0.0 0.00 0.00 0.00 65 1011.7
20260502120105 11 18 0.0 0.0 0.00 0.00 0.00 65 1011.8
20260502114525 11 9 0.0 0.0 0.00 0.00 0.00 64 1011.8
20260502113025 11 38 0.0 0.0 0.00 0.00 0.00 64 1011.9
20260502111530 11 40 0.0 0.0 0.00 0.00 0.00 64 1012.0
20260502110017 11 38 0.0 0.0 0.00 0.00 0.00 64 1012.2
20260502104516 11 13 0.0 4.8 0.00 0.00 0.00 66 1012.2
20260502103017 11 132 0.0 0.0 0.00 0.00 0.00 67 1012.2
20260502101516 11 134 0.0 0.0 0.00 0.00 0.00 67 1012.1
20260502091513 11 142 0.0 0.0 0.00 0.00 0.00 69 1012.2
20260502071502 11 142 0.0 0.0 0.00 0.00 0.00 67 1011.1
20260502070059 11 142 0.0 0.0 0.00 0.00 0.00 67 1011.1
20260502064558 11 142 0.0 0.0 0.00 0.00 0.00 67 1011.4